Weather History for Marianna, FL

Change the Weather History Date:

Monday, April 8, 2013

  Actual Average Record
Temperature  
Mean Temperature 67 °F 65 °F  
Max Temperature 82 °F 78 °F 91 °F (2011)
Min Temperature 52 °F 52 °F 34 °F (2007)
Degree Days  
Heating Degree Days 0    
Month to date heating degree days 32  
Since 1 July heating degree days 1341  
Cooling Degree Days 2    
Month to date cooling degree days 4  
Year to date cooling degree days 75  
Growing Degree Days 17 (Base 50)    
Moisture  
Dew Point 56 °F    
Average Humidity 68    
Maximum Humidity 93    
Minimum Humidity 42    
Precipitation  
Precipitation 0.00 in 0.16 in 2.33 in (2003)
Month to date precipitation 0.42 1.33  
Year to date precipitation 17.27 16.85  
Sea Level Pressure  
Sea Level Pressure 30.08 in    
Wind  
Wind Speed 5 mph (South)    
Max Wind Speed 15 mph    
Max Gust Speed 21 mph    
Visibility 10 miles    
Events      
T = Trace of Precipitation, MM = Missing Value Source: NWS Daily Summary

Daily Weather History Graph

Daily Weather History Graph

Search for Another Location

Airport:

Trip Planner

Search our weather history database for the weather conditions in past years. The results will help you decide how hot, cold, wet, or windy it might be!

Date:

Astronomy

Apr. 08, 2013 Rise Set
Actual Time 6:20 AM CDT 7:04 PM CDT
Civil Twilight 5:56 AM CDT 7:29 PM CDT
Nautical Twilight 5:27 AM CDT 7:57 PM CDT
Astronomical Twilight 4:58 AM CDT 8:27 PM CDT
Moon 5:04 AM CDT (4/8) 5:41 PM CDT (4/8)
Length of Visible Light 13h 32m
Length of Day
12h 43m
Waning Crescent, 3% of the Moon is Illuminated
Apr 8
Waning Crescent
Apr 10
New
Apr 18
First Quarter
Apr 25
Full
May 2
Last Quarter

Hourly Weather History & Observations

Time (CDT) Temp. Heat Index Dew Point Humidity Pressure Visibility Wind Dir Wind Speed Gust Speed Precip Events Conditions
12:53 AM 55.9 °F - 52.0 °F 87% 30.06 in 10.0 mi Calm Calm - N/A   Clear
1:53 AM 55.9 °F - 53.1 °F 90% 30.05 in 10.0 mi Calm Calm - N/A   Clear
2:53 AM 54.0 °F - 52.0 °F 93% 30.05 in 10.0 mi Calm Calm - N/A   Clear
3:53 AM 53.1 °F - 51.1 °F 93% 30.06 in 10.0 mi Calm Calm - N/A   Clear
4:53 AM 54.0 °F - 52.0 °F 93% 30.06 in 10.0 mi Calm Calm - N/A   Clear
5:53 AM 53.1 °F - 51.1 °F 93% 30.08 in 10.0 mi Calm Calm - N/A   Clear
6:53 AM 53.1 °F - 52.0 °F 96% 30.09 in 10.0 mi Calm Calm - N/A   Clear
7:53 AM 61.0 °F - 57.0 °F 87% 30.11 in 10.0 mi East 4.6 mph - N/A   Clear
8:53 AM 66.0 °F - 59.0 °F 78% 30.11 in 10.0 mi SSE 6.9 mph - N/A   Clear
9:53 AM 73.0 °F - 60.1 °F 64% 30.12 in 10.0 mi South 12.7 mph - N/A   Clear
10:53 AM 77.0 °F - 59.0 °F 54% 30.13 in 10.0 mi South 9.2 mph - N/A   Clear
11:53 AM 78.1 °F - 57.0 °F 48% 30.12 in 10.0 mi South 10.4 mph 18.4 mph N/A   Mostly Cloudy
12:53 PM 81.0 °F 80.8 °F 55.9 °F 42% 30.11 in 10.0 mi SSW 11.5 mph - N/A   Mostly Cloudy
1:53 PM 79.0 °F - 55.9 °F 45% 30.08 in 10.0 mi South 9.2 mph - N/A   Scattered Clouds
2:53 PM 81.0 °F 81.0 °F 57.0 °F 44% 30.06 in 10.0 mi South 10.4 mph - N/A   Mostly Cloudy
3:53 PM 81.0 °F 81.0 °F 57.0 °F 44% 30.05 in 10.0 mi Variable 6.9 mph - N/A   Mostly Cloudy
4:53 PM 79.0 °F - 57.0 °F 47% 30.05 in 10.0 mi South 6.9 mph - N/A   Mostly Cloudy
5:53 PM 79.0 °F - 57.9 °F 48% 30.05 in 10.0 mi South 12.7 mph 16.1 mph N/A   Clear
6:53 PM 75.0 °F - 59.0 °F 57% 30.06 in 10.0 mi South 8.1 mph - N/A   Clear
7:53 PM 72.0 °F - 59.0 °F 64% 30.08 in 10.0 mi South 4.6 mph - N/A   Clear
8:53 PM 68.0 °F - 57.9 °F 70% 30.10 in 10.0 mi South 3.5 mph - N/A   Clear
9:53 PM 66.0 °F - 57.0 °F 73% 30.11 in 10.0 mi Calm Calm - N/A   Clear
10:53 PM 63.0 °F - 57.0 °F 81% 30.09 in 10.0 mi Calm Calm - N/A   Clear
11:53 PM 61.0 °F - 57.0 °F 87% 30.09 in 10.0 mi Calm Calm - N/A   Clear